Location: Boderne
(56.0792°N, 12.5345°E)
Time: 14:50:43
(UTC+00:00)

Daily predictions for brighter satellites

Satellite Brightness Start Highest point End
(mag) Time Altitude Azimuth Time Altitude Azimuth Time Altitude Azimuth
ATLAS 2AS CENTAUR R/B 3.1 20:42:27 10° NW 20:50:19 81° NE 20:57:32 10° ESE
Resurs 01 Rocket 4.1 20:51:15 10° SW 20:54:20 18° W 20:57:27 10° NW
Cosmos 1818 3.6 20:51:44 10° SW 20:57:09 76° SE 21:02:37 10° NE
Cosmos 2221 2.7 20:53:16 10° N 20:57:41 68° ENE 21:02:02 10° SSE
Cosmos 773 Rocket 4.1 20:54:40 10° SSW 20:59:56 70° ESE 21:05:14 10° NNE
SL-16 R/B 3.4 20:55:37 10° WSW 21:01:07 48° NW 21:06:38 10° NNE
GEOS 3 Rocket 3.7 20:55:53 10° NE 21:01:16 63° SE 21:06:38 10° SW
ERS-1 Rocket 3.7 20:58:28 10° S 21:03:23 52° W 21:08:21 10° NNW
USA 215 3.7 20:58:30 10° ENE 21:04:39 40° SE 21:10:44 10° SSW
Cosmos 2278 Rocket 2.3 21:01:28 10° NW 21:07:11 83° WSW 21:12:52 10° SSE
Cosmos 1892 3.7 21:07:18 10° SSE 21:10:38 31° E 21:14:02 10° NNE
Cosmos 1844 Rocket 4.4 21:07:00 10° NW 21:11:23 24° WSW 21:15:45 10° SSW
ATLAS 5 CENTAUR R/B 1.6 21:09:22 10° SW 21:13:40 77° SE 21:18:38 10° NE
Aureole 2 Rocket 3.8 21:11:27 10° N 21:13:47 23° NE 21:16:09 10° ESE
Meteor 1-11 4.4 21:08:53 10° SSW 21:14:33 82° WNW 21:20:19 10° NNE
Cosmos 1943 Rocket 3.6 21:09:56 10° NNW 21:15:07 34° NE 21:20:15 10° E
SPOT 5 3.8 21:15:24 10° S 21:20:09 43° W 21:24:42 10° NNW
Lacrosse 5 rocket 1.5 21:17:04 10° W 21:21:17 77° N 21:25:14 10° E
Cosmos 2056 Rocket 3.9 21:16:36 10° NNW 21:21:59 62° ENE 21:27:22 10° SE
SL-16 R/B 4.1 21:20:00 10° SE 21:22:42 14° E 21:25:25 10° ENE
Nadezhda 3 Rocket 4.2 21:16:24 10° N 21:22:48 70° ENE 21:29:08 10° SSE
Spot 4 4.2 21:20:09 10° SE 21:24:50 57° ENE 21:29:32 10° N
USA 81 4.4 21:22:08 10° SSW 21:27:23 66° W 21:32:41 10° N
Cosmos 2058 3.3 21:25:06 10° SSE 21:29:06 48° E 21:33:06 10° NNE
Cosmos 2154 Rocket 4.3 21:23:23 10° SSE 21:29:20 52° E 21:35:21 10° NNE
Cosmos 1408 3.6 21:29:06 11° SSE 21:32:06 31° E 21:35:18 10° NNE
TSX-5 4.3 21:30:49 10° NW 21:34:02 43° WSW 21:37:35 11° SSE
In-Cosmos 22 Rocket 4.2 21:30:21 10° S 21:35:34 61° E 21:40:50 10° NNE
Cosmos 2074 Rocket 4.0 21:30:23 10° S 21:36:37 82° E 21:42:52 10° NNE
Cosmos 1076 Rocket 3.7 21:36:08 10° S 21:40:19 55° E 21:44:30 10° NNE
USA 267 3.7 21:34:16 10° SE 21:40:33 47° SW 21:46:51 10° WNW
Cosmos 1680 Rocket 4.1 21:35:53 10° S 21:40:50 41° ESE 21:45:49 10° NE
CZ-4C R/B 3.5 21:37:31 10° WNW 21:43:51 56° NNE 21:51:25 10° E
JB-3 4.2 21:41:48 10° NNE 21:45:42 90° ESE 21:49:31 10° SSW
COSMOS 2455 3.4 21:41:29 10° NW 21:47:29 58° NE 21:53:27 10° ESE
Cosmos 2322 Rocket 4.1 21:43:37 10° W 21:48:42 34° NW 21:53:49 10° NNE
Cosmos 1452 Rocket 4.4 21:43:52 10° NNW 21:48:56 44° NE 21:53:58 10° ESE
MTI 3.9 21:46:37 10° NNE 21:49:43 72° WNW 21:52:47 10° SSW
Cosmos 2151 3.9 21:47:18 12° SSE 21:50:49 35° E 21:54:43 10° NNE
Helios 1A 4.4 21:48:53 10° ESE 21:52:30 29° ENE 21:56:10 10° N
ATLAS CENTAUR R/B 3.4 21:53:47 10° W 21:55:42 14° WSW 21:57:36 10° SSW
Cosmos 923 Rocket 4.1 21:53:03 10° SSW 21:58:16 66° ESE 22:03:33 10° NNE
Cosmos 2327 Rocket 4.5 21:52:36 10° S 21:58:47 83° E 22:04:58 10° NNE
Cosmos 1933 4.2 21:55:02 10° N 21:58:50 39° ENE 22:02:24 11° SE
Cosmos 1151 Rocket 3.8 21:55:10 10° N 21:59:22 45° ENE 22:03:13 12° SE
Cosmos 2369 Rocket 3.3 21:54:17 10° NNW 21:59:37 42° NE 22:04:56 10° ESE
Cosmos 1825 2.7 21:58:09 14° SSE 22:01:11 44° E 22:04:49 10° NNE
ALOS 2 2.9 21:58:03 12° SSE 22:02:02 63° ENE 22:06:23 10° N
APEX 3.4 21:59:43 10° NNW 22:02:24 40° NE 22:05:01 10° ESE
Cosmos 1980 3.9 21:57:36 10° SSW 22:03:07 57° ESE 22:08:39 10° NE
Cosmos 371 Rocket 3.6 22:02:14 10° NNW 22:07:07 66° ENE 22:11:47 11° SE
GP-B 3.8 22:03:26 10° N 22:07:43 44° E 22:11:23 13° SSE
COSMOS 2428 2.9 22:02:24 10° SW 22:08:05 75° NW 22:13:48 10° NNE
Cosmos 1624 Rocket 4.2 22:07:15 10° NNW 22:12:28 65° WSW 22:16:57 14° SSE
Cosmos 1295 Rocket 4.5 22:06:31 11° S 22:12:30 78° E 22:18:37 10° NNE
NOSS 3-4 (A) 4.2 22:06:39 10° NW 22:13:12 50° SW 22:19:46 13° SSE
NOSS 3-4 (C) 4.2 22:06:45 10° NW 22:13:19 50° SW 22:19:54 13° SSE
NOSS 0 Rocket 3.9 22:09:22 10° SSW 22:15:31 75° ESE 22:21:43 10° NE
Terra 3.8 22:12:17 10° SW 22:15:54 21° W 22:19:32 10° NW
Cosmos 1782 4.2 22:16:23 10° N 22:19:57 31° ENE 22:23:30 10° SE
SL-4 R/B 1.6 22:19:54 17° SE 22:21:09 33° ENE 22:23:06 10° N
Cosmos 2237 Rocket 2.2 22:15:43 10° SSW 22:21:22 70° ESE 22:27:05 10° NE
Genesis I 3.8 22:18:35 12° SSW 22:21:48 37° SE 22:25:26 10° ENE
Cosmos 2219 Rocket 2.9 22:18:28 10° SW 22:23:59 58° NW 22:29:34 10° NNE
Cosmos 2344 3.9 22:17:02 10° SSW 22:24:06 49° ESE 22:32:00 10° NE
Cosmos 2360 Rocket 4.1 22:21:30 10° W 22:26:35 33° NW 22:31:42 10° NNE
NOSS 3-3 (A) 4.1 22:20:35 10° SW 22:26:42 88° NW 22:33:46 10° NE
NOSS 3-3 (C) 4.1 22:20:41 10° SW 22:26:48 88° NW 22:33:52 10° NE
Thor Agena Rocket 3.5 22:23:04 10° NNE 22:28:15 89° WNW 22:33:18 10° SSW
Cosmos 1346 Rocket 4.4 22:28:04 12° SE 22:30:48 22° E 22:33:54 10° NE
Cosmos 2333 Rocket 3.2 22:28:40 10° WSW 22:34:13 50° NW 22:39:51 10° NNE
RESURS DK-1 3.5 22:34:05 10° NNW 22:38:04 43° NE 22:42:02 10° ESE
Cosmos 1515 Rocket 3.8 22:35:16 10° N 22:39:37 62° ENE 22:43:15 14° SSE
ATLAS 2AS CENTAUR R/B 3.5 22:33:53 10° NW 22:40:51 40° WSW 22:46:25 14° S
BREEZE-M DEB (TANK) 3.1 22:38:42 10° WSW 22:40:56 16° SSW 22:41:22 16° SSW
EO 1 Del DPAF 3.5 22:37:42 10° N 22:41:28 66° WNW 22:44:59 11° SSW
Cosmos 1892 4.2 22:42:53 10° SW 22:46:19 32° WNW 22:49:47 10° N
Cosmos 1328 Rocket 3.6 22:42:41 10° NNW 22:47:01 76° W 22:50:25 16° S
Aureole 2 Rocket 3.2 22:44:54 10° NW 22:47:24 29° WSW 22:48:59 17° SSW
Cosmos 1766 Rocket 3.6 22:44:24 15° S 22:47:59 77° E 22:52:25 10° NNE
USA 215 3.2 22:41:38 10° ENE 22:48:15 79° SSE 22:54:50 10° WSW
Cosmos 1606 3.1 22:45:34 10° NNW 22:49:22 55° W 22:52:19 16° S
Cosmos 2278 Rocket 4.0 22:46:32 10° NW 22:50:30 20° W 22:54:26 10° SW
Okean 3 Rocket 3.6 22:47:02 14° S 22:50:49 90° WNW 22:55:16 10° NNE
Cosmos 2297 4.1 22:47:03 10° NW 22:52:36 50° WSW 22:57:11 15° S
Cosmos 304 Rocket 3.9 22:48:43 10° NNW 22:53:35 80° ENE 22:58:04 12° SSE
Cosmos 2112 Rocket 4.2 22:49:01 10° SSW 22:54:22 76° WNW 22:59:47 10° NNE
Cosmos 2228 Rocket 3.7 22:50:44 10° N 22:55:15 53° ENE 22:59:19 12° SSE
Cosmos 1420 Rocket 4.4 22:51:15 10° NW 22:56:23 54° WSW 23:00:36 15° S
Cosmos 2218 Rocket 4.1 22:50:54 14° S 22:56:27 76° E 23:02:45 10° NNE
Cosmos 158 Rocket 4.2 22:53:41 10° SW 22:58:33 66° WNW 23:03:28 10° NNE
ATLAS 5 CENTAUR R/B 3.2 22:54:19 10° W 22:58:41 43° NNW 23:03:44 10° NE
Cosmos 1943 Rocket 2.2 22:53:44 10° NW 22:59:26 79° WSW 23:04:40 12° SSE
Lacrosse 5 rocket 1.1 22:56:25 10° WNW 23:00:28 67° SSW 23:04:16 10° ESE
Cosmos 2366 rocket 4.1 22:56:35 14° S 23:02:07 79° E 23:08:30 10° NNE
Cosmos 1633 3.3 23:01:11 16° SSE 23:03:42 41° E 23:07:08 10° NNE
SL-16 R/B 2.4 23:00:46 13° SSW 23:05:42 61° ESE 23:11:20 10° NE
Cosmos 1408 4.2 23:04:00 10° SW 23:07:08 28° WNW 23:10:18 10° N
YAOGAN 11 4.2 23:09:09 16° S 23:12:38 74° WSW 23:17:06 10° NNW
Cosmos 1743 Rocket 4.0 23:12:36 16° SSE 23:15:54 51° E 23:20:09 10° NNE
Cosmos 332 Rocket 4.1 23:13:08 10° NW 23:17:48 51° WSW 23:21:28 16° S
Cosmos 2341 Rocket 4.4 23:11:47 10° SSW 23:17:54 58° WNW 23:24:04 10° N
Cosmos 1331 Rocket 4.2 23:12:44 10° NNW 23:18:05 75° ENE 23:23:24 10° SE
Cosmos 1680 Rocket 4.5 23:17:48 10° SW 23:22:57 47° NW 23:28:07 10° NNE
Meteor 2-3 Rocket 3.8 23:21:02 14° SSW 23:25:54 89° ESE 23:31:40 10° NNE
Cosmos 405 3.1 23:23:06 10° NNW 23:26:39 62° W 23:29:08 18° S
Helios 1A 3.6 23:24:53 16° SSW 23:27:57 44° W 23:31:59 10° NNW
Cosmos 2151 4.3 23:24:11 10° SW 23:28:07 35° WNW 23:32:04 10° N
Meteor 1-10 Rocket 4.4 23:24:56 10° NNW 23:30:34 74° ENE 23:35:50 11° SSE
Cosmos 1452 Rocket 4.1 23:26:08 10° NW 23:31:06 43° WSW 23:35:07 15° S
CZ-4C R/B 2.9 23:26:03 10° NW 23:32:53 75° SW 23:40:55 10° SE
Meteor 2-6 Rocket 4.2 23:27:27 10° NNW 23:33:02 88° ENE 23:37:54 13° SSE
PSLV R/B 3.9 23:29:08 10° NNE 23:33:17 53° E 23:36:34 16° S
Cosmos 389 Rocket 3.9 23:30:06 10° N 23:33:22 33° ENE 23:36:34 10° SE
COSMOS 2455 3.3 23:27:38 10° NW 23:33:24 46° WSW 23:38:24 13° S
Cosmos 1110 Rocket 4.0 23:29:55 10° NNW 23:35:13 80° WSW 23:40:16 11° SSE
Cosmos 1151 Rocket 4.4 23:33:03 10° NNW 23:36:46 28° W 23:40:03 12° SW
SL-8 Rocket 4.4 23:30:59 11° SSW 23:36:52 56° WNW 23:42:57 10° N
Cosmos 1825 4.1 23:33:50 10° WSW 23:36:55 23° WNW 23:40:01 10° N
Cosmos 1340 3.0 23:34:23 14° SSW 23:37:27 57° WNW 23:41:12 10° N
ALOS 2 4.3 23:35:27 10° SW 23:38:45 22° W 23:42:11 10° NW
Cosmos 1408 Rocket 3.9 23:35:56 14° SSW 23:39:38 60° WNW 23:44:02 10° N
SL-16 R/B 3.4 23:34:00 10° SE 23:39:56 48° ENE 23:45:56 10° NNW
Cosmos 1727 Rocket 4.4 23:36:46 10° NNW 23:42:47 53° W 23:48:04 14° SSW
Resurs 1-4 Rocket 4.0 23:39:22 10° NE 23:43:23 21° E 23:47:23 10° SE
APEX 4.4 23:41:48 10° WNW 23:43:32 15° WSW 23:44:22 14° SW
Cosmos 2369 Rocket 2.4 23:38:24 10° NW 23:43:53 56° WSW 23:48:49 13° S
SeaSat 1 4.2 23:43:48 10° ENE 23:47:29 21° ESE 23:51:09 10° SSE
Cosmos 44 3.0 23:43:44 10° SW 23:48:05 87° SE 23:52:39 10° NE
Cosmos 1500 Rocket 3.6 23:44:49 16° SSW 23:48:23 88° W 23:52:48 10° NNE
Helios 1B rocket 2.6 23:47:58 10° NNE 23:52:06 65° ESE 23:55:23 15° S
Cosmos 1782 3.8 23:52:42 10° NNW 23:56:19 34° W 23:59:10 14° SSW
